User: anonymous   Login
Location: Unnamed Road
(35.9029°N, 51.9749°E)
Time: 09:33:17
(UTC+04:30)
Language:

Transit 2A Rocket - Orbit

View from above orbital plane
View from above orbital plane
View from above satellite
View from above satellite

Ground track
Ground track

The orbit data is extracted from the following two-line orbital elements,

1    47U 60007C   20148.61704711 -.00000037  00000-0  16842-4 0  9992
2    47  66.6653 210.7361 0233143 317.1450  41.1684 14.42086915132114
Epoch (UTC): 27 May 2020 14:48:32
Eccentricity: 0.0233143
inclination: 66.6653°
perigee height: 585 km
apogee height: 918 km
right ascension of ascending node: 210.7361°
argument of perigee: 317.1450°
revolutions per day: 14.42086915
mean anomaly at epoch: 41.1684°
orbit number at epoch: 13211

The dashed part of the orbit path shows where the satellite is in the earth's shadow,  

DLR